Regional Weather Roundup
Issued by NWS Memphis, TN

Home | Current Version | Previous Version | Text Only | Print | Product List | Glossary On
Versions: 1 2 3 4 5 6 7 8 9 10 11 12 13 14 15 16 17 18 19 20 21 22 23 24 25 26 27 28 29 30 31 32 33 34 35 36 37 38 39 40 41 42 43 44 45 46 47 48 49 50
000
ASUS44 KMEG 280910
RWRMEG
MEMPHIS CWA HOURLY WEATHER ROUNDUP
NATIONAL WEATHER SERVICE MEMPHIS TN
400 AM CDT THU AUG 28 2014

...WEST TENNESSEE...

CITY           SKY/WX    TMP DP  RH WIND       PRES   REMARKS
MEMPHIS INTL   CLEAR     77  65  66 CALM      30.01S
NWS MEMPHIS      N/A     70 N/A N/A MISG        N/A
JACKSON        CLEAR     71  69  93 CALM      30.02S FOG
LEXINGTON      CLEAR     70  68  94 CALM      30.02S
SAVANNAH       PTCLDY    70  70 100 CALM      30.03S
DYERSBURG      CLEAR     73  64  73 CALM      30.03S
UNION CITY     CLEAR     72  72 100 CALM      30.01S
PARIS            N/A     70  68  94 CALM      30.03F VSB 1/2
HUNTINGDON     CLEAR     70  70 100 CALM      30.03S


...EASTERN ARKANSAS...

CITY           SKY/WX    TMP DP  RH WIND       PRES   REMARKS
JONESBORO      CLEAR     72  69  90 CALM      30.01S
WEST MEMPHIS   CLEAR     71  70  96 CALM      30.00S
BATESVILLE     CLEAR     72  68  88 CALM      30.02S
NEWPORT        CLEAR     76  71  84 CALM      30.02S
WALNUT RIDGE   CLEAR     70  70 100 CALM      30.01S
BLYTHEVILLE    CLEAR     74  73  97 CALM      30.01S
SEARCY         CLEAR     70  70 100 CALM      30.02F
STUTTGART      CLEAR     72  66  83 E5        30.01S
PINE BLUFF     CLEAR     70  68  93 CALM      30.00F
MONTICELLO     CLEAR     71  67  87 CALM      29.99F


...NORTH MISSISSIPPI...

CITY           SKY/WX    TMP DP  RH WIND       PRES   REMARKS
TUPELO         PTCLDY    70  67  90 NE5       30.01F
OLIVE BRANCH   CLEAR     70  70 100 CALM      30.02S
CLARKSDALE     CLEAR     70  70 100 CALM      30.01S
CORINTH          N/A     70  68  94 CALM      30.02S
GRENADA        CLEAR     64  64 100 CALM      30.01S
GREENWOOD      PTCLDY    68  66  93 N5        29.99F
COLUMBUS       CLEAR     67  66  98 N2        30.01S
STARKVILLE     FAIR      64  64 100 CALM      30.01S
GOLDEN TRIANGL CLEAR     70  63  78 N3        30.01S


...SOUTHEAST MISSOURI...

CITY           SKY/WX    TMP DP  RH WIND       PRES   REMARKS
WEST PLAINS    CLEAR     72  67  84 CALM      30.07F
POPLAR BLUFF   CLEAR     74  70  87 CALM      30.01F FOG
CAPE GIRARDEAU PTCLDY    73  72  96 CALM      30.02F FOG


...NORTHWEST ALABAMA...

CITY           SKY/WX    TMP DP  RH WIND       PRES   REMARKS
MUSCLE SHOALS  CLEAR     68  64  88 CALM      30.03S FOG


...MIDDLE TENNESSEE...

CITY           SKY/WX    TMP DP  RH WIND       PRES   REMARKS
NASHVILLE      CLEAR     73  71  93 CALM      30.03S
CLARKSVILLE    CLEAR     71  69  93 CALM      30.02S FOG
DICKSON        CLEAR     72  72 100 CALM      30.04S
COLUMBIA         N/A     70  68  94 CALM      30.03R
LEWISBURG      CLEAR     65  63  93 CALM      30.04R


...WESTERN KENTUCKY...

CITY           SKY/WX    TMP DP  RH WIND       PRES   REMARKS
PADUCAH        PTCLDY    76  71  85 N5        30.02R
FORT CAMPBELL  CLEAR     74  74 100 CALM      30.03R


...CENTRAL ARKANSAS...

CITY           SKY/WX    TMP DP  RH WIND       PRES   REMARKS
LITTLE ROCK    CLEAR     74  69  85 CALM      30.01S


SKY/WX REPORTED AS FAIR MEANS FEW OR NO CLOUDS BELOW
12 THOUSAND FEET.



USA.gov is the U.S. government's official web portal to all federal, state and local government web resources and services.